• In Hungary
  • List of Countries
  • For 7 days
  • Water Temperature
  • Satellite Maps
  • Weather Map
  • News
  • Weather Widgets
  • user-avatar
    Login

    Hourly Weather Sevan

    Today, 19 January, Friday

    Time Temperature Precipitation Wind Pressure Humidity
    00:00 -2°C° 0.1 mm 3 mps 632 mmHg 82%
    01:00 -4°C° 0 mm 3 mps 632 mmHg 82%
    02:00 -4°C° 0 mm 3 mps 631 mmHg 83%
    03:00 -3°C° 0 mm 2 mps 631 mmHg 85%
    04:00 -3°C° 0 mm 2 mps 631 mmHg 85%
    05:00 -3°C° 0 mm 2 mps 631 mmHg 85%
    06:00 -3°C° 0 mm 2 mps 631 mmHg 85%
    07:00 -2°C° 0 mm 2 mps 632 mmHg 84%
    08:00 -1°C° 0 mm 2 mps 632 mmHg 84%
    09:00 +1°C° 0 mm 2 mps 632 mmHg 82%
    10:00 +2°C° 0 mm 2 mps 632 mmHg 81%
    11:00 +3°C° 0 mm 2 mps 633 mmHg 79%
    12:00 +4°C° 0 mm 2 mps 633 mmHg 78%
    13:00 +4°C° 0 mm 2 mps 633 mmHg 77%
    14:00 +4°C° 0 mm 2 mps 633 mmHg 76%
    15:00 +4°C° 0 mm 2 mps 633 mmHg 76%
    16:00 +4°C° 0 mm 1 mps 633 mmHg 77%
    17:00 +3°C° 0 mm 1 mps 633 mmHg 78%
    18:00 +2°C° 0 mm 1 mps 633 mmHg 79%
    19:00 +1°C° 0.1 mm 1 mps 634 mmHg 78%
    20:00 +1°C° 0.1 mm 1 mps 634 mmHg 78%
    21:00 -1°C° 0.1 mm 2 mps 634 mmHg 78%
    22:00 -1°C° 0 mm 2 mps 634 mmHg 79%
    23:00 -1°C° 0 mm 2 mps 634 mmHg 80%

    Tomorrow, 20 January, Saturday

    Time Temperature Precipitation Wind Pressure Humidity
    00:00 -2°C° 0 mm 2 mps 635 mmHg 81%
    01:00 -2°C° 0.1 mm 2 mps 635 mmHg 82%
    02:00 -2°C° 0.1 mm 2 mps 635 mmHg 84%
    03:00 -2°C° 0.1 mm 2 mps 636 mmHg 85%
    04:00 -2°C° 0.1 mm 2 mps 636 mmHg 85%
    05:00 -2°C° 0.1 mm 2 mps 637 mmHg 85%
    06:00 -2°C° 0.1 mm 2 mps 637 mmHg 84%
    07:00 -2°C° 0.1 mm 2 mps 638 mmHg 82%
    08:00 -1°C° 0.1 mm 2 mps 638 mmHg 81%
    09:00 +1°C° 0.1 mm 1 mps 639 mmHg 79%
    10:00 +1°C° 0 mm 2 mps 639 mmHg 76%
    11:00 +2°C° 0 mm 2 mps 639 mmHg 74%
    12:00 +2°C° 0 mm 2 mps 640 mmHg 72%
    13:00 +3°C° 0 mm 1 mps 640 mmHg 72%
    14:00 +3°C° 0 mm 1 mps 639 mmHg 71%
    15:00 +3°C° 0 mm 1 mps 639 mmHg 71%
    16:00 +2°C° 0 mm 1 mps 640 mmHg 72%
    17:00 0°C° 0 mm 1 mps 640 mmHg 73%
    18:00 -1°C° 0 mm 1 mps 640 mmHg 74%
    19:00 -1°C° 0 mm 1 mps 640 mmHg 72%
    20:00 -2°C° 0 mm 1 mps 641 mmHg 71%
    21:00 -2°C° 0 mm 1 mps 641 mmHg 69%
    22:00 -2°C° 0 mm 1 mps 641 mmHg 69%
    23:00 -2°C° 0 mm 1 mps 641 mmHg 69%

    Day after tomorrow, 21 January, Sunday

    Time Temperature Precipitation Wind Pressure Humidity
    00:00 -5°C° 0 mm 2 mps 641 mmHg 69%
    01:00 -5°C° 0 mm 2 mps 641 mmHg 69%
    02:00 -5°C° 0 mm 2 mps 641 mmHg 70%
    03:00 -5°C° 0 mm 2 mps 641 mmHg 71%
    04:00 -5°C° 0 mm 2 mps 641 mmHg 71%
    05:00 -5°C° 0 mm 2 mps 641 mmHg 71%
    06:00 -5°C° 0 mm 2 mps 641 mmHg 71%
    07:00 -4°C° 0 mm 2 mps 641 mmHg 70%
    08:00 -3°C° 0 mm 2 mps 642 mmHg 69%
    09:00 -2°C° 0 mm 2 mps 642 mmHg 68%
    10:00 -1°C° 0 mm 2 mps 642 mmHg 66%
    11:00 0°C° 0 mm 3 mps 642 mmHg 64%
    12:00 +1°C° 0 mm 3 mps 642 mmHg 63%
    13:00 +1°C° 0 mm 3 mps 641 mmHg 63%
    14:00 +2°C° 0 mm 3 mps 641 mmHg 62%
    15:00 +3°C° 0 mm 2 mps 641 mmHg 62%
    16:00 +1°C° 0 mm 2 mps 641 mmHg 62%
    17:00 -1°C° 0 mm 2 mps 641 mmHg 62%
    18:00 -3°C° 0 mm 2 mps 641 mmHg 62%
    19:00 -3°C° 0 mm 2 mps 641 mmHg 61%
    20:00 -3°C° 0 mm 2 mps 641 mmHg 60%
    21:00 -3°C° 0 mm 2 mps 640 mmHg 58%
    22:00 -3°C° 0 mm 2 mps 640 mmHg 58%
    23:00 -3°C° 0 mm 2 mps 640 mmHg 58%

    22 January, Monday

    Time Temperature Precipitation Wind Pressure Humidity
    00:00 -3°C° 0 mm 2 mps 640 mmHg 58%
    01:00 -3°C° 0 mm 2 mps 640 mmHg 58%
    02:00 -3°C° 0 mm 2 mps 639 mmHg 58%
    03:00 -3°C° 0 mm 2 mps 639 mmHg 57%
    04:00 -3°C° 0 mm 2 mps 639 mmHg 57%
    05:00 -3°C° 0 mm 2 mps 638 mmHg 56%
    06:00 -2°C° 0 mm 2 mps 638 mmHg 56%
    07:00 -2°C° 0 mm 2 mps 638 mmHg 57%
    08:00 -1°C° 0 mm 2 mps 638 mmHg 57%
    09:00 -1°C° 0 mm 2 mps 638 mmHg 58%
    10:00 +2°C° 0 mm 2 mps 638 mmHg 57%
    11:00 +3°C° 0 mm 2 mps 637 mmHg 56%
    12:00 +3°C° 0 mm 3 mps 637 mmHg 56%
    13:00 +4°C° 0 mm 2 mps 637 mmHg 56%
    14:00 +4°C° 0 mm 2 mps 636 mmHg 56%
    15:00 +4°C° 0 mm 2 mps 636 mmHg 57%
    16:00 +2°C° 0 mm 2 mps 636 mmHg 55%
    17:00 +1°C° 0 mm 2 mps 635 mmHg 54%
    18:00 -2°C° 0 mm 2 mps 635 mmHg 52%
    19:00 -2°C° 0 mm 2 mps 635 mmHg 52%
    20:00 -3°C° 0 mm 2 mps 635 mmHg 52%
    21:00 -3°C° 0 mm 2 mps 635 mmHg 51%
    22:00 -3°C° 0 mm 2 mps 635 mmHg 53%
    23:00 -3°C° 0 mm 2 mps 635 mmHg 54%

    23 January, Tuesday

    Time Temperature Precipitation Wind Pressure Humidity
    00:00 -3°C° 0 mm 2 mps 634 mmHg 56%
    01:00 -4°C° 0 mm 2 mps 634 mmHg 56%
    02:00 -4°C° 0 mm 2 mps 634 mmHg 57%
    03:00 -4°C° 0 mm 2 mps 634 mmHg 57%
    04:00 -4°C° 0 mm 2 mps 634 mmHg 58%
    05:00 -4°C° 0 mm 2 mps 634 mmHg 58%
    06:00 -4°C° 0 mm 2 mps 634 mmHg 58%
    07:00 -4°C° 0 mm 2 mps 634 mmHg 59%
    08:00 -3°C° 0 mm 2 mps 635 mmHg 60%
    09:00 -2°C° 0 mm 2 mps 635 mmHg 60%
    10:00 -1°C° 0 mm 2 mps 635 mmHg 59%
    11:00 +1°C° 0 mm 2 mps 635 mmHg 58%
    12:00 +1°C° 0 mm 3 mps 635 mmHg 57%
    13:00 +1°C° 0 mm 3 mps 634 mmHg 58%
    14:00 +2°C° 0 mm 2 mps 634 mmHg 59%
    15:00 +2°C° 0 mm 2 mps 634 mmHg 60%
    16:00 +1°C° 0 mm 2 mps 634 mmHg 61%
    17:00 -1°C° 0 mm 2 mps 634 mmHg 61%
    18:00 -2°C° 0 mm 2 mps 634 mmHg 62%
    19:00 +1°C° 0.1 mm 1 mps 634 mmHg 64%
    20:00 +1°C° 0.1 mm 1 mps 634 mmHg 66%
    21:00 +1°C° 0.1 mm 1 mps 634 mmHg 67%
    22:00 +1°C° 0.2 mm 1 mps 634 mmHg 70%
    23:00 0°C° 0.2 mm 1 mps 634 mmHg 72%

    24 January, Wednesday

    Time Temperature Precipitation Wind Pressure Humidity
    00:00 0°C° 0.2 mm 1 mps 635 mmHg 74%
    01:00 0°C° 0.2 mm 1 mps 635 mmHg 76%
    02:00 0°C° 0.2 mm 1 mps 635 mmHg 78%
    03:00 0°C° 0.2 mm 1 mps 635 mmHg 79%
    04:00 0°C° 0.2 mm 1 mps 635 mmHg 80%
    05:00 -1°C° 0.2 mm 1 mps 635 mmHg 81%
    06:00 -1°C° 0.2 mm 1 mps 635 mmHg 82%
    07:00 -1°C° 0.1 mm 1 mps 635 mmHg 81%
    08:00 0°C° 0.1 mm 1 mps 636 mmHg 80%
    09:00 0°C° 0.1 mm 1 mps 636 mmHg 79%
    10:00 +1°C° 0.1 mm 1 mps 636 mmHg 76%
    11:00 +2°C° 0.1 mm 1 mps 637 mmHg 74%
    12:00 +3°C° 0.1 mm 1 mps 637 mmHg 72%
    13:00 +3°C° 0.1 mm 1 mps 637 mmHg 72%
    14:00 +3°C° 0.1 mm 1 mps 637 mmHg 71%
    15:00 +3°C° 0.1 mm 1 mps 637 mmHg 71%
    16:00 +2°C° 0 mm 1 mps 637 mmHg 73%
    17:00 +1°C° 0 mm 1 mps 637 mmHg 76%
    18:00 -1°C° 0 mm 1 mps 637 mmHg 78%
    19:00 -1°C° 0 mm 1 mps 638 mmHg 78%
    20:00 -1°C° 0 mm 1 mps 638 mmHg 78%
    21:00 -2°C° 0 mm 1 mps 638 mmHg 78%
    22:00 -2°C° 0.1 mm 1 mps 638 mmHg 78%
    23:00 -2°C° 0.1 mm 1 mps 639 mmHg 77%
    Show more